FENGYUN 1C DEB, 30062

Orbit data source: Space-Track

FENGYUN 1C DEB, 30062 is space debris in SSO originally from a launch on Mon, 10 May 1999 UTC launched from the Taiyaun Space Center, China (TSC). Fengyun 1C debris stems from the Chinese weather satellite Fengyun-1C, which was intentionally destroyed by a Chinese anti-satellite missile in 2007. This event dramatically increased the amount of space debris, with thousands of trackable fragments posing hazards to satellites and human spaceflight. The Fengyun 1C debris cloud has become a focal point in discussions about space sustainability and the need for international regulations to prevent the creation of new debris.

Loading next visibility...
Identifier
30062, 1999-025PP
Orbit
SSO
Country
Flag of CNCN / PRC
Related business
Manufacturer
Unknown
Mission
Spacecraft
Bus & Motor
Unknown
Mass
Unknown
Launch date (UTC)
1999-05-10 (27 years ago)
Launch vehicle
Unknown
Launch site
Taiyaun Space Center, China (TSC)
Object type
Payload
Rocket body
Debris
Shape & HBR
Unknown shape, 0.4 m
Radar Cross Section
Medium (>0.1 m² and <1 m²)

Expand to show TLE details & history
Last TLE update: 8 hours ago

TLE from 8 hours ago
0 FENGYUN 1C DEB
1 30062U 99025PP  26170.02552251  .00000470  00000-0  30195-3 0  9996
2 30062  98.7757 178.8496 0047409 236.4826 191.3760 14.07360892995565
Epoch: 2026-06-19T00:36Z
TLE epoch observation values (Epoch: 2026-06-19T00:36:45.144Z)
Latitude
66.25111°
Longitude
-118.02656°
Altitude
913.521 km
Speed
7.384 km/s
True Right ascension
10h 33m 41s
True Declination
66° 07' 36"
Sunlit
Object was in daylight at epoch
Visualization orbit readout
Latitude
Unknown
Longitude
Unknown
Altitude
Unknown
Speed
Unknown
Apparent Right ascension
Unknown
Apparent Declination
Unknown
Sunlit
N/A
Visualization observer readout
Local Sidereal Time
19:55:08
Azimuth
Unknown
Elevation
Unknown
Doppler factor
Unknown
Orbital elements
Apogee altitude
899.937 km
Perigee altitude
831.254 km
Semi-major axis
7,243.732 km
Eccentricity
0.00474
Inclination
98.7757°
RAAN
178.8496°
Arg. of periapsis
236.4826°
True anomaly
191.26946°
Mean anomaly
191.376°
Eccentric anomaly
191.32267°
Mean motion
3.52046 °/min
Orbital period
102.26 mins
BSTAR
0.00030195

Documentation

Showing up to 5 results
|